[[{"header":{"parameterUnit":"m.s-1","parameterCategory":1,"la1":30.2991,"la2":30.254,"lo1":-89.0895,"lo2":-89.0444,"dy":0.0017,"dx":0.0017,"nx":28,"ny":28,"refTime":"2024-07-26T21:00:00:Z","depth":0,"parameterNumber":2,"parameterNumberName":"U-component_of_WINDS"},"data":[0,0,0,0,0,0,0,0,0,0,0,0,0,0,0,0,0,0,0,0,0,0,0,0,0,0,0,0,0,0,0,0,0,0,0,0,0,0,0,0,0,0,0,0,0,0,0,0,0,0,0,0,0,0,0,0,0,0,2.7755,2.7756,0,2.785,2.7851,2.7853,2.7859,2.7858,2.7856,2.7855,2.7955,2.7959,2.7962,0,0,0,0,0,0,0,0,0,0,0,0,0,2.7579,2.7582,2.7755,2.7756,2.7757,2.785,2.7852,2.7853,2.7859,2.7858,2.7856,2.7855,2.7954,2.7958,2.7963,0,0,0,0,0,0,0,0,0,0,0,0,0,2.7663,2.7583,2.7754,2.7771,2.7774,2.785,2.7852,2.7853,2.7859,2.7857,2.7856,2.7854,2.7952,2.7958,2.7963,2.803,0,0,2.798,2.7982,0,0,0,0,0,0,0,0,2.7658,2.7669,2.7768,2.777,2.7773,2.7841,2.7826,2.7912,2.786,2.7827,2.7855,2.7854,2.7919,2.7927,2.7948,2.8034,2.8039,2.798,2.7984,2.7986,2.7988,0,0,0,0,0,0,0,2.7652,2.7665,2.7793,2.7769,2.7772,2.7775,2.7785,2.7842,2.7881,2.7829,2.783,2.7841,2.792,2.7943,2.7951,2.804,2.798,2.7985,2.7989,2.7991,2.8186,2.8188,0,0,0,0,0,0,2.7643,2.766,2.779,2.7795,2.771,2.7779,2.779,2.7821,2.788,2.7887,2.7843,2.7841,2.7934,2.7944,2.7954,2.8036,2.7986,2.7991,2.7994,2.8184,2.8187,2.8189,0,0,0,0,0,0,2.7639,2.7655,2.7786,2.7728,2.7745,2.7784,2.7818,2.7824,2.7847,2.789,2.7897,2.7859,2.7933,2.7946,2.8011,2.804,2.7994,2.7999,2.8182,2.8185,2.8188,2.8201,0,0,0,0,0,0,2.7634,2.7653,2.7678,2.7729,2.7748,2.784,2.782,2.7827,2.7856,2.7855,2.7907,2.7914,2.7933,2.8003,2.8016,2.8046,2.8003,2.818,2.8183,2.8187,2.8198,2.8203,2.8208,0,0,0,0,0,2.7628,2.7678,2.768,2.7695,2.778,2.7842,2.7853,2.7873,2.7858,2.7884,2.7912,2.7913,2.8034,2.8009,2.8025,2.8057,2.8178,2.8182,2.8187,2.8195,2.8202,2.8208,0,0,0,0,0,0,2.7631,2.7685,2.7687,2.7755,2.7794,2.7843,2.7876,2.788,2.7924,2.7921,2.7945,2.7956,2.802,2.8045,2.8016,2.8125,2.8105,2.8112,2.8106,2.8113,2.8118,2.8111,2.8008,0,0,0,0,0,2.7639,2.7684,2.773,2.7785,2.7805,2.7837,2.7865,2.7877,2.7918,2.7934,2.7967,2.8007,2.8054,2.8085,2.8131,2.8201,2.8213,2.8231,2.8237,2.8241,2.8247,2.8286,2.8295,2.8203,2.8203,2.8203,0,0,2.7658,2.7693,2.772,2.7787,2.7818,2.7865,2.7851,2.79,2.7935,2.7942,2.8005,2.803,2.8077,2.8144,2.8176,2.8167,2.8275,2.8246,2.8249,2.8253,2.8292,2.83,2.8308,2.8206,2.8205,2.8205,0,0,2.7714,2.7745,2.7795,2.7827,2.7874,2.7896,2.7908,2.7956,2.7973,2.8036,2.8042,2.8085,2.8166,2.8199,2.8226,2.8296,2.8298,2.831,2.8338,2.8376,2.8384,2.839,2.8415,2.8424,2.8317,2.8317,2.8317,0,2.7731,2.7801,2.7821,2.7871,2.79,2.7908,2.7959,2.7989,2.8049,2.807,2.8059,2.8161,2.8193,2.8268,2.8285,2.8307,2.8322,2.8304,2.8381,2.8388,2.8394,2.8419,2.8428,2.8318,2.8318,2.8317,2.8317,0,2.7819,2.7868,2.7902,2.796,2.7994,2.8044,2.8072,2.8104,2.8113,2.8135,2.82,2.8239,2.8293,2.8312,2.8321,2.8389,2.8382,2.8376,2.8356,2.8404,2.8427,2.8437,2.8319,2.8319,2.8319,2.8318,0,0,2.788,2.7948,2.7961,2.7987,2.804,2.8078,2.8129,2.8182,2.8208,2.825,2.8293,2.8362,2.8357,2.8388,2.8401,2.8435,2.8488,2.8425,2.8426,2.8435,2.8565,2.857,2.858,2.849,2.8492,2.8493,2.8561,0,2.7943,2.8033,2.8053,2.8131,2.8176,2.8184,2.8229,2.8266,2.8289,2.8331,2.8357,2.8405,2.8394,2.8413,2.8446,2.8474,2.8515,2.847,2.8531,2.8533,2.8519,2.8592,2.8597,2.8659,2.8571,2.8572,2.8573,0,2.8029,2.8072,2.8154,2.8201,2.8221,2.826,2.831,2.835,2.8393,2.8408,2.8442,2.8453,2.8506,2.8484,2.8559,2.8528,2.8555,2.8572,2.8575,2.8582,2.8556,2.8601,2.868,2.8689,2.8588,2.8587,2.8586,0,2.8065,2.8144,2.8203,2.8225,2.8282,2.831,2.8335,2.8376,2.8407,2.845,2.847,2.852,2.8547,2.8586,2.8609,2.8591,2.8683,2.8662,2.8696,2.8696,2.8715,2.8714,2.8799,2.8732,2.8732,2.8732,2.8732,0,2.8133,2.8183,2.822,2.8257,2.8313,2.8336,2.8391,2.8416,2.8453,2.8495,2.8506,2.8545,2.8574,2.8617,2.8636,2.8696,2.8708,2.8721,2.8726,2.872,2.8719,2.8738,2.8734,2.8734,2.8734,2.8733,2.8733,0,2.8184,2.821,2.8276,2.8324,2.8337,2.8377,2.8419,2.8455,2.8477,2.8531,2.8544,2.8581,2.8632,2.866,2.8725,2.8737,2.8804,2.8806,2.8789,2.8791,2.8824,2.882,2.8925,2.894,2.8863,2.8863,2.8864,0,2.8225,2.8264,2.8316,2.8345,2.8371,2.8417,2.8447,2.8471,2.8503,2.8555,2.8585,2.8638,2.8681,2.8763,2.8796,2.8846,2.8849,2.8882,2.8857,2.885,2.885,2.8847,2.8851,2.8887,2.8887,2.8888,2.8888,0,2.8297,2.8308,2.8352,2.8401,2.8437,2.8477,2.8516,2.8539,2.8569,2.8605,2.8658,2.8691,2.8757,2.8809,2.8861,2.8888,2.8894,2.8896,2.8907,2.8902,2.889,2.8897,2.8802,2.8894,2.8893,2.8893,2.8893,2.8892,2.8344,2.8379,2.8421,2.847,2.8502,2.8538,2.8575,2.8602,2.8646,2.8702,2.8713,2.8769,2.8812,2.8883,2.8911,2.8955,2.8949,2.8964,2.8968,2.8971,2.8972,2.8883,2.8965,2.8965,2.8965,2.8965,2.8965,0,2.8416,2.8444,2.8488,2.8543,2.8581,2.8583,2.8626,2.8658,2.8707,2.8746,2.8788,2.8849,2.89,2.8936,2.8988,2.9016,2.902,2.9029,2.9027,2.9033,2.8976,2.8961,2.9025,2.9025,2.9025,2.9025,2.9025,2.9025,2.8458,2.8517,2.8534,2.8609,2.8636,2.8691,2.8715,2.8749,2.8781,2.8848,2.889,2.8913,2.8951,2.9006,2.9052,2.9062,2.908,2.9089,2.9099,2.9044,2.9038,2.9031,2.9018,2.9093,2.9093,2.9153,2.9154,2.9154]},{"header":{"parameterUnit":"m.s-1","parameterCategory":1,"la1":30.2991,"la2":30.254,"lo1":-89.0895,"lo2":-89.0444,"dy":0.0017,"dx":0.0017,"nx":28,"ny":28,"refTime":"2024-07-26T21:00:00:Z","depth":0,"parameterNumber":3,"parameterNumberName":"V-component_of_WINDS"},"data":[0,0,0,0,0,0,0,0,0,0,0,0,0,0,0,0,0,0,0,0,0,0,0,0,0,0,0,0,0,0,0,0,0,0,0,0,0,0,0,0,0,0,0,0,0,0,0,0,0,0,0,0,0,0,0,0,0,0,0.4078,0.4077,0,0.4056,0.4056,0.4056,0.4045,0.4045,0.4045,0.4045,0.4023,0.4022,0.4022,0,0,0,0,0,0,0,0,0,0,0,0,0,0.4108,0.4107,0.4078,0.4077,0.4077,0.4056,0.4056,0.4056,0.4045,0.4045,0.4045,0.4045,0.4023,0.4022,0.4022,0,0,0,0,0,0,0,0,0,0,0,0,0,0.4091,0.4107,0.4078,0.4069,0.4068,0.4056,0.4056,0.4056,0.4045,0.4045,0.4045,0.4045,0.4023,0.4022,0.4021,0.4016,0,0,0.4019,0.4018,0,0,0,0,0,0,0,0,0.4092,0.409,0.4071,0.407,0.4069,0.4053,0.4058,0.4042,0.4045,0.4054,0.4045,0.4045,0.4033,0.4031,0.4027,0.4015,0.4014,0.4019,0.4018,0.4018,0.4017,0,0,0,0,0,0,0,0.4093,0.4091,0.4069,0.407,0.4069,0.4066,0.4064,0.4055,0.4044,0.4053,0.4052,0.405,0.4032,0.4028,0.4027,0.4014,0.4019,0.4018,0.4017,0.4017,0.3995,0.3995,0,0,0,0,0,0,0.4096,0.4092,0.407,0.4069,0.4081,0.4066,0.4063,0.4058,0.4044,0.4042,0.405,0.405,0.403,0.4028,0.4026,0.4018,0.4018,0.4017,0.4016,0.3995,0.3995,0.3995,0,0,0,0,0,0,0.4097,0.4094,0.4071,0.408,0.4077,0.4065,0.406,0.4058,0.4054,0.4041,0.4039,0.4048,0.403,0.4027,0.4018,0.4017,0.4017,0.4016,0.3995,0.3995,0.3995,0.4002,0,0,0,0,0,0,0.4098,0.4094,0.4093,0.408,0.4076,0.4064,0.406,0.4057,0.4052,0.4051,0.4039,0.4037,0.4029,0.402,0.4018,0.4016,0.4015,0.3995,0.3995,0.3995,0.4002,0.4003,0.4003,0,0,0,0,0,0.4099,0.4096,0.4093,0.409,0.4074,0.4064,0.4062,0.4054,0.4052,0.405,0.4042,0.4037,0.4018,0.4019,0.4016,0.4014,0.3995,0.3995,0.3995,0.4002,0.4003,0.4003,0,0,0,0,0,0,0.4109,0.4094,0.409,0.4084,0.4075,0.4062,0.4059,0.4055,0.4046,0.4046,0.4036,0.4033,0.4025,0.4019,0.4021,0.4008,0.4006,0.4005,0.4012,0.4012,0.4013,0.4014,0.4014,0,0,0,0,0,0.411,0.4104,0.4091,0.4086,0.4082,0.4071,0.4067,0.4061,0.4052,0.4048,0.404,0.4031,0.4022,0.4017,0.4009,0.4001,0.3998,0.3998,0.3999,0.3999,0.3999,0.3993,0.3993,0.3994,0.3994,0.3994,0,0,0.4113,0.4104,0.4101,0.4088,0.4081,0.4073,0.4069,0.4062,0.4056,0.4047,0.4038,0.4032,0.4021,0.4012,0.4008,0.4007,0.3997,0.3999,0.3999,0.3999,0.3993,0.3993,0.3993,0.3994,0.3994,0.3994,0,0,0.4114,0.4107,0.4102,0.4095,0.4084,0.4077,0.4075,0.4063,0.4058,0.4049,0.4042,0.4035,0.4021,0.4013,0.4008,0.4005,0.4,0.4003,0.4004,0.3999,0.3999,0.3998,0.3997,0.3996,0.4002,0.4002,0.4002,0,0.4119,0.4108,0.41,0.4093,0.4087,0.4078,0.4072,0.4066,0.4053,0.4049,0.4047,0.4029,0.4021,0.401,0.401,0.4006,0.4003,0.4004,0.3999,0.3999,0.3999,0.3997,0.3996,0.4002,0.4002,0.4002,0.4002,0,0.4114,0.4107,0.4104,0.4091,0.4085,0.4079,0.4068,0.4063,0.4058,0.405,0.4041,0.4031,0.402,0.4017,0.4012,0.4005,0.4004,0.4002,0.3999,0.3999,0.3997,0.3996,0.4003,0.4003,0.4003,0.4003,0,0,0.4122,0.4104,0.4103,0.4097,0.4084,0.4077,0.407,0.406,0.4055,0.4046,0.4039,0.4027,0.4024,0.4017,0.4011,0.4006,0.4003,0.4004,0.4003,0.4003,0.3994,0.3996,0.3996,0.4,0.4,0.4,0.3995,0,0.4121,0.4108,0.4099,0.4089,0.4082,0.4073,0.4067,0.4058,0.4051,0.4043,0.4035,0.4026,0.4023,0.4019,0.4014,0.4005,0.4001,0.4005,0.3993,0.3992,0.3995,0.3995,0.3997,0.3993,0.3994,0.3994,0.3994,0,0.4118,0.4109,0.4099,0.4085,0.4082,0.4076,0.4065,0.4058,0.4047,0.4042,0.4034,0.4028,0.4019,0.4017,0.4005,0.4007,0.4002,0.3996,0.3996,0.3994,0.3993,0.3992,0.3991,0.3991,0.3993,0.3993,0.3993,0,0.4124,0.4109,0.41,0.4095,0.408,0.4076,0.4069,0.4058,0.4052,0.4042,0.4038,0.4027,0.4021,0.4013,0.4003,0.4003,0.3991,0.3989,0.3986,0.3986,0.3984,0.3984,0.3981,0.3981,0.3981,0.3981,0.3981,0,0.4123,0.4117,0.4103,0.4097,0.409,0.4079,0.4072,0.4064,0.4055,0.4047,0.4039,0.4032,0.402,0.4011,0.4004,0.3993,0.3991,0.3986,0.3984,0.3987,0.3987,0.3982,0.3982,0.3981,0.3981,0.3981,0.3981,0,0.4128,0.4119,0.4108,0.4094,0.4091,0.4086,0.4073,0.4067,0.4059,0.405,0.4047,0.4034,0.4024,0.4013,0.3999,0.3994,0.3983,0.3981,0.3987,0.3986,0.3983,0.3983,0.3977,0.3975,0.3977,0.3977,0.3977,0,0.4129,0.4123,0.4109,0.4103,0.4096,0.4088,0.4081,0.4071,0.4064,0.4051,0.4046,0.4035,0.4025,0.4008,0.3997,0.3986,0.3983,0.3981,0.3981,0.3983,0.3982,0.3982,0.3981,0.3982,0.3982,0.3982,0.3982,0,0.413,0.4125,0.4116,0.4105,0.4097,0.4088,0.4079,0.4074,0.4062,0.4055,0.4044,0.4036,0.4021,0.4009,0.3997,0.3989,0.3983,0.3982,0.398,0.3983,0.3986,0.3983,0.3987,0.3982,0.3982,0.3982,0.3982,0.3982,0.4132,0.4126,0.4115,0.4105,0.4096,0.4087,0.4081,0.4072,0.4063,0.405,0.4044,0.4032,0.402,0.4002,0.3995,0.3985,0.3984,0.3982,0.3981,0.3981,0.3981,0.3988,0.3983,0.3983,0.3983,0.3983,0.3983,0,0.4132,0.4124,0.4115,0.4101,0.4093,0.4088,0.4077,0.407,0.4061,0.405,0.4041,0.4027,0.4016,0.4004,0.3991,0.3986,0.3983,0.3983,0.3983,0.3981,0.3983,0.3986,0.3985,0.3985,0.3985,0.3985,0.3986,0.3986,0.4131,0.4121,0.4115,0.41,0.4092,0.4081,0.4075,0.4066,0.4058,0.4043,0.4034,0.4026,0.4014,0.4001,0.399,0.3986,0.3982,0.3983,0.3979,0.3981,0.3981,0.3981,0.3983,0.3982,0.3982,0.3977,0.3977,0.3977]}]]